This is the latest recevied weather packets stored in our database for station/object K1FFK-1. If no packets are shown the sender has not sent any weather packets the latest 10 day(s).
| Time | Temp. | Humidity | Pressure | Rain* | Wind** | Luminosity | Snow |
|---|---|---|---|---|---|---|---|
| 1777498894 | 9.44° C | 76% | 1013.3 hPa | 0 mm | - | - | - |
| 1777498294 | 9.44° C | 76% | 1013.5 hPa | 0 mm | - | - | - |
| 1777497694 | 10° C | 75% | 1013.7 hPa | 0 mm | - | - | - |
| 1777497094 | 10° C | 75% | 1013.8 hPa | 0 mm | - | - | - |
| 1777496494 | 10° C | 75% | 1014.1 hPa | 0 mm | - | - | - |
| 1777495894 | 10° C | 74% | 1014.1 hPa | 0 mm | - | - | - |
| 1777495293 | 10.56° C | 73% | 1014 hPa | 0 mm | - | - | - |
| 1777494693 | 10.56° C | 73% | 1014 hPa | 0 mm | - | - | - |
| 1777494094 | 10.56° C | 72% | 1014 hPa | 0 mm | - | - | - |
| 1777493493 | 11.11° C | 70% | 1014.3 hPa | 0 mm | - | - | - |
| 1777492893 | 11.11° C | 69% | 1014.2 hPa | 0 mm | - | - | - |
| 1777492295 | 11.11° C | 69% | 1014.4 hPa | 0 mm | - | - | - |
| 1777491697 | 11.67° C | 68% | 1014.7 hPa | 0 mm | - | - | - |
| 1777491093 | 11.67° C | 67% | 1014.9 hPa | 0 mm | - | - | - |
| 1777490494 | 11.67° C | 66% | 1015.1 hPa | 0 mm | - | - | - |
| 1777489894 | 11.67° C | 66% | 1015.3 hPa | 0 mm | - | - | - |
| 1777489294 | 11.67° C | 65% | 1015.4 hPa | 0 mm | - | - | - |
| 1777488695 | 11.67° C | 66% | 1015.5 hPa | 0 mm | - | - | - |
| 1777488095 | 12.22° C | 65% | 1015.6 hPa | 0 mm | - | - | - |
| 1777487495 | 11.67° C | 65% | 1015.7 hPa | 0 mm | - | - | - |
| 1777486894 | 11.67° C | 65% | 1015.7 hPa | 0 mm | - | - | - |
| 1777486293 | 11.67° C | 65% | 1015.7 hPa | 0 mm | - | - | - |
| 1777485694 | 11.67° C | 66% | 1015.7 hPa | 0 mm | - | - | - |
| 1777485094 | 11.67° C | 65% | 1015.9 hPa | 0 mm | - | - | - |
| 1777484494 | 11.11° C | 67% | 1015.9 hPa | 0 mm | - | - | - |
* Rain latest hour (hover to see other rain measurements)
** Current wind speed in m/s (hover to see current wind gust speed)